Location: Foligno
(42.9600°N, 12.7050°E)
Time: 18:22:53
(UTC+02:00)

N. Korean satellite - Visible Passes

Search period start: 17 October 2019 00:00
Search period end: 27 October 2019 00:00
Orbit: 455 x 508 km, 97.2° (Epoch: 16 October)

Date Brightness Start Highest point End Pass type
(mag) Time Alt. Az. Time Alt. Az. Time Alt. Az.
17 Oct 8.9 06:32:09 10° NE 06:35:19 29° E 06:38:31 10° SSE visible
18 Oct 10.1 06:07:46 10° ENE 06:09:53 15° E 06:12:01 10° SE visible
19 Oct 10.4 19:26:48 10° WSW 19:27:52 11° W 19:28:56 10° WNW visible
20 Oct 7.7 06:49:21 10° NNE 06:52:53 49° E 06:56:26 10° S visible
20 Oct 9.4 18:59:36 10° SSW 19:02:21 22° W 19:05:09 10° NW visible
21 Oct 9.3 06:24:30 10° NE 06:27:29 24° E 06:30:31 10° SSE visible
22 Oct 10.3 06:00:28 10° ENE 06:02:01 12° E 06:03:34 10° ESE visible
23 Oct 10.1 19:18:04 10° SW 19:19:57 14° W 19:21:50 10° WNW visible
24 Oct 8.3 06:41:35 10° NNE 06:45:03 39° E 06:48:31 10° S visible
24 Oct 8.9 18:51:28 10° SSW 18:54:28 28° W 18:57:30 10° NW visible
25 Oct 9.7 06:16:52 10° NE 06:19:37 20° E 06:22:23 10° SE visible
